Terug naar catalogus

STARLINK-37391

ActiefCommunicatieSSO
NORAD 68779·PAYLOAD·🇺🇸 United States

Gelanceerd Apr 19, 2026 vanaf Vandenberg Space Force Base

Loading…

Volgende Passages (komende 24 uur)

TLE

VersSource: CelesTrak SupGP

Epoch: Sep 15, 2026, 03:11 UTC

1 68779C 26086P   26258.13312500 -.00021313  00000+0 -66162-3 0  2580
2 68779  97.2840 293.6462 0001073 105.4807 228.9164 15.33449896    12

Volg STARLINK-37391 in realtime met AllMySat

Download on the App Store